Date String (YYYY-MM-DD hh:mm:ss) UTC,Instrument flags,absolute air pressure of the measurement (hPa),sample flow rate (lpm),inlet stack bypass flow (lpm),air temperature of the measurement (°C),ambient temperature measured by the external sensor (°C),aerosol sample conditioner tube jacket temperature (°C),OPC LED temperature (°C),internal box temperature (°C),relative humidity of the measurement (%),span deviation,mass concentration of particles derived from Lorenz-Mie calculation of OPC scattering (μg/m³),mass concentration of particles derived from Lorenz-Mie calculation of OPC scattering (μg/m³),mass concentration of particles derived from Lorenz-Mie calculation of OPC scattering (μg/m³)
DateTimeUTC,F1_M11,P_M11,Q1_M11,Q2_M11,T1_M11,T2_M11,T3_M11,T4_M11,T5_M11,U1_M11,ZSPAN_M11,X0_M11,X2_M11,X1_M11
2024-03-31 08:00:00,SystemResetWarning,0819.5,4.99,000.00,023.3,022.5,000.0,031.9,025.1,19.2,0000.0,0008.66,0004.29,0003.70
2024-03-31 08:01:00,SystemResetWarning,0819.5,5.00,000.00,023.3,022.5,000.0,031.9,025.1,19.3,0000.0,0008.30,0004.27,0003.67
2024-03-31 08:02:00,SystemResetWarning,0819.5,5.01,000.00,023.3,022.5,000.0,031.9,025.1,19.3,0000.0,0008.29,0004.25,0003.65
2024-03-31 08:03:00,SystemResetWarning,0819.4,5.01,000.00,023.2,022.5,000.0,031.9,025.1,19.1,0000.0,0008.28,0004.21,0003.63
2024-03-31 08:04:00,SystemResetWarning,0819.4,5.01,000.00,023.2,022.5,000.0,031.9,025.1,19.2,0000.0,0008.62,0004.19,0003.61
2024-03-31 08:05:00,SystemResetWarning,0819.5,5.00,000.00,023.2,022.4,000.0,031.9,025.1,19.3,0000.0,0008.59,0004.14,0003.59
2024-03-31 08:06:00,SystemResetWarning,0819.5,4.99,000.00,023.2,022.4,000.0,031.9,025.1,19.5,0000.0,0008.51,0004.08,0003.57
2024-03-31 08:07:00,SystemResetWarning,0819.5,5.00,000.00,023.2,022.4,000.0,031.9,025.1,19.7,0000.0,0008.33,0004.03,0003.53
2024-03-31 08:08:00,SystemResetWarning,0819.5,5.01,000.00,023.2,022.4,000.0,031.9,025.1,19.7,0000.0,0008.85,0004.00,0003.50
2024-03-31 08:09:00,SystemResetWarning,0819.5,5.00,000.00,023.2,022.4,000.0,031.9,025.1,19.8,0000.0,0009.51,0003.98,0003.48
2024-03-31 08:10:00,SystemResetWarning,0819.5,5.00,000.00,023.2,022.4,000.0,031.9,025.1,20.0,0000.0,0009.31,0003.94,0003.45
2024-03-31 08:11:00,SystemResetWarning,0819.5,5.00,000.00,023.2,022.4,000.0,031.9,025.1,20.2,0000.0,0009.15,0003.85,0003.40
2024-03-31 08:12:00,SystemResetWarning,0819.4,5.00,000.00,023.2,022.4,000.0,031.9,025.1,20.2,0000.0,0009.35,0003.83,0003.38
2024-03-31 08:13:00,SystemResetWarning,0819.5,5.00,000.00,023.2,022.4,000.0,031.9,025.1,20.1,0000.0,0009.61,0003.83,0003.38
2024-03-31 08:14:00,SystemResetWarning,0819.5,5.00,000.00,023.2,022.4,000.0,031.9,025.1,20.3,0000.0,0010.07,0003.82,0003.36
2024-03-31 08:15:00,SystemResetWarning,0819.4,5.00,000.00,023.2,022.4,000.0,031.9,025.0,20.2,0000.0,0009.98,0003.79,0003.32
2024-03-31 08:16:00,SystemResetWarning,0819.4,5.00,000.00,023.2,022.4,000.0,031.8,025.0,20.3,0000.0,0010.39,0003.78,0003.30
2024-03-31 08:17:00,SystemResetWarning,0819.5,5.00,000.00,023.2,022.4,000.0,031.8,025.0,20.4,0000.0,0010.41,0003.78,0003.27
2024-03-31 08:18:00,SystemResetWarning,0819.5,5.00,000.00,023.2,022.4,000.0,031.8,025.0,20.5,0000.0,0010.34,0003.75,0003.25
2024-03-31 08:19:00,SystemResetWarning,0819.5,5.00,000.00,023.2,022.4,000.0,031.8,025.0,20.6,0000.0,0009.75,0003.71,0003.22
2024-03-31 08:20:00,SystemResetWarning,0819.5,5.00,000.00,023.2,022.4,000.0,031.8,025.0,20.7,0000.0,0009.10,0003.75,0003.21
2024-03-31 08:21:00,SystemResetWarning,0819.5,5.00,000.00,023.1,022.4,000.0,031.8,025.0,20.5,0000.0,0009.08,0003.76,0003.20
2024-03-31 08:22:00,SystemResetWarning,0819.5,5.00,000.00,023.1,022.4,000.0,031.8,025.0,20.4,0000.0,0009.18,0003.77,0003.22
2024-03-31 08:23:00,SystemResetWarning,0819.4,5.00,000.00,023.1,022.4,000.0,031.8,025.0,20.4,0000.0,0008.96,0003.77,0003.22
2024-03-31 08:24:00,SystemResetWarning,0819.4,5.00,000.00,023.1,022.4,000.0,031.8,025.0,20.5,0000.0,0008.75,0003.78,0003.21
2024-03-31 08:25:00,SystemResetWarning,0819.3,4.99,000.00,023.1,022.4,000.0,031.8,025.0,20.5,0000.0,0009.20,0003.78,0003.19
2024-03-31 08:26:00,SystemResetWarning,0819.4,5.01,000.00,023.1,022.3,000.0,031.8,025.0,20.5,0000.0,0009.20,0003.78,0003.19
2024-03-31 08:27:00,SystemResetWarning,0819.3,5.01,000.00,023.1,022.4,000.0,031.8,025.0,20.5,0000.0,0008.32,0003.77,0003.19
2024-03-31 08:28:00,SystemResetWarning,0819.5,4.99,000.00,023.1,022.3,000.0,031.8,025.0,20.5,0000.0,0008.32,0003.76,0003.19
2024-03-31 08:29:00,SystemResetWarning,0819.4,4.99,000.00,023.1,022.3,000.0,031.8,025.0,20.5,0000.0,0008.94,0003.78,0003.20
2024-03-31 08:30:00,SystemResetWarning,0819.4,4.99,000.00,023.1,022.3,000.0,031.8,025.0,20.6,0000.0,0009.93,0003.78,0003.21
2024-03-31 08:31:00,SystemResetWarning,0819.4,5.01,000.00,023.1,022.3,000.0,031.8,025.0,20.6,0000.0,0010.99,0003.73,0003.21
2024-03-31 08:32:00,SystemResetWarning,0819.4,5.00,000.00,023.1,022.2,000.0,031.8,025.0,20.7,0000.0,0011.73,0003.72,0003.21
2024-03-31 08:33:00,SystemResetWarning,0819.4,5.01,000.00,023.1,022.2,000.0,031.7,024.9,20.7,0000.0,0012.30,0003.72,0003.19
2024-03-31 08:34:00,SystemResetWarning,0819.4,5.00,000.00,023.1,022.2,000.0,031.7,024.9,20.8,0000.0,0012.34,0003.75,0003.18
2024-03-31 08:35:00,SystemResetWarning,0819.5,4.99,000.00,023.1,022.2,000.0,031.7,024.9,20.8,0000.0,0012.28,0003.72,0003.17
2024-03-31 08:36:00,SystemResetWarning,0819.5,5.00,000.00,023.1,022.2,000.0,031.7,024.9,20.9,0000.0,0011.29,0003.68,0003.17
2024-03-31 08:37:00,SystemResetWarning,0819.3,5.00,000.00,023.0,022.2,000.0,031.7,024.9,20.9,0000.0,0011.22,0003.66,0003.15
2024-03-31 08:38:00,SystemResetWarning,0819.3,5.01,000.00,023.0,022.2,000.0,031.7,024.9,20.9,0000.0,0011.34,0003.67,0003.15
2024-03-31 08:39:00,SystemResetWarning,0819.3,5.01,000.00,023.0,022.2,000.0,031.7,024.9,20.9,0000.0,0011.51,0003.69,0003.15
2024-03-31 08:40:00,SystemResetWarning,0819.3,5.00,000.00,023.0,022.2,000.0,031.7,024.9,21.0,0000.0,0011.20,0003.70,0003.13
2024-03-31 08:41:00,SystemResetWarning,0819.3,5.01,000.00,023.0,022.2,000.0,031.7,024.9,21.0,0000.0,0010.70,0003.72,0003.12
2024-03-31 08:42:00,SystemResetWarning,0819.3,5.00,000.00,023.0,022.2,000.0,031.7,024.9,21.0,0000.0,0009.72,0003.73,0003.11
2024-03-31 08:43:00,SystemResetWarning,0819.3,4.99,000.00,023.0,022.2,000.0,031.7,024.9,20.9,0000.0,0009.04,0003.74,0003.11
2024-03-31 08:44:00,SystemResetWarning,0819.4,5.00,000.00,023.0,022.2,000.0,031.7,024.9,20.7,0000.0,0008.56,0003.76,0003.12
2024-03-31 08:45:00,SystemResetWarning,0819.3,4.99,000.00,023.0,022.2,000.0,031.7,024.9,20.5,0000.0,0008.71,0003.76,0003.15
2024-03-31 08:46:00,SystemResetWarning,0819.4,5.00,000.00,023.0,022.2,000.0,031.7,024.9,20.4,0000.0,0009.04,0003.76,0003.17
2024-03-31 08:47:00,SystemResetWarning,0819.3,5.00,000.00,023.0,022.2,000.0,031.7,024.9,20.4,0000.0,0009.17,0003.82,0003.20
2024-03-31 08:48:00,SystemResetWarning,0819.2,5.01,000.00,023.0,022.2,000.0,031.6,024.9,20.4,0000.0,0009.07,0003.86,0003.23
2024-03-31 08:49:00,SystemResetWarning,0819.2,5.00,000.00,023.0,022.2,000.0,031.6,024.9,20.3,0000.0,0009.42,0003.88,0003.26
2024-03-31 08:50:00,SystemResetWarning,0819.2,4.99,000.00,023.0,022.2,000.0,031.6,024.9,20.2,0000.0,0009.18,0003.86,0003.29
2024-03-31 08:51:00,SystemResetWarning,0819.2,5.00,000.00,023.0,022.2,000.0,031.6,024.9,20.2,0000.0,0008.97,0003.88,0003.33
2024-03-31 08:52:00,SystemResetWarning,0819.2,5.01,000.00,023.0,022.2,000.0,031.6,024.8,20.1,0000.0,0008.64,0003.90,0003.37
2024-03-31 08:53:00,SystemResetWarning,0819.2,4.99,000.00,023.0,022.2,000.0,031.6,024.8,20.0,0000.0,0008.66,0003.95,0003.42
2024-03-31 08:54:00,SystemResetWarning,0819.2,4.99,000.00,022.9,022.2,000.0,031.6,024.8,19.9,0000.0,0008.79,0004.04,0003.48
2024-03-31 08:55:00,SystemResetWarning,0819.2,5.00,000.00,022.9,022.2,000.0,031.6,024.8,19.7,0000.0,0008.79,0004.10,0003.51
2024-03-31 08:56:00,SystemResetWarning,0819.2,5.01,000.00,022.9,022.1,000.0,031.6,024.8,19.7,0000.0,0008.58,0004.11,0003.54
2024-03-31 08:57:00,SystemResetWarning,0819.1,5.01,000.00,022.9,022.1,000.0,031.6,024.8,19.7,0000.0,0008.33,0004.17,0003.57
2024-03-31 08:58:00,SystemResetWarning,0819.1,5.00,000.00,022.9,022.1,000.0,031.6,024.8,19.7,0000.0,0008.26,0004.15,0003.58
2024-03-31 08:59:00,SystemResetWarning,0819.2,5.00,000.00,022.9,022.1,000.0,031.6,024.8,19.7,0000.0,0008.56,0004.18,0003.60
